ATLAS 5 CENTAUR DEB, 49362

Orbit data source: Space-Track

ATLAS 5 CENTAUR DEB, 49362 is space debris in HEO originally from a launch on Wed, 17 Oct 2018 UTC launched from the Air Force Eastern Test Range (AFETR). Debris objects in space refer to the collection of defunct objects orbiting the Earth. Examples of debris include non-operational satellites, rocket bodies, and fragments generated from explosions, collisions, or faulty payload assembly.

Loading next visibility...
Identifier
49362, 2018-079FP
Orbit
HEO
Country
Flag of USUS
Related business
Flag of USUnited Launch Alliance/Lockheed Martin (US)
Manufacturer
ULA Decatur
Mission
Spacecraft
Bus & Motor
Unknown
Mass
Unknown
Launch date (UTC)
2018-10-17 (8 years ago)
Launch vehicle
Unknown
Launch site
Air Force Eastern Test Range (AFETR)
Object type
Payload
Rocket body
Debris
Shape & HBR
Unknown shape, 1.1 m
Radar Cross Section
RCS unknown

Expand to show TLE details & history
Last TLE update: 5 months ago

TLE from 5 months ago
0 ATLAS 5 CENTAUR DEB
1 49362U 18079FP  26076.56865517 -.00000121  00000-0  00000-0 0  9998
2 49362  13.4521  47.2365 4853402 285.8521  27.3634  1.75762281 29191
Epoch: 2026-03-17T13:38Z
TLE epoch observation values (Epoch: 2026-03-17T13:38:51.806Z)
Latitude
0.00002°
Longitude
27.43888°
Altitude
13,163.679 km
Speed
5.201 km/s
True Right ascension
03h 09m 11s
True Declination
0° 00' 00"
Sunlit
Object was in daylight at epoch
Visualization orbit readout
Latitude
Unknown
Longitude
Unknown
Altitude
Unknown
Speed
Unknown
Apparent Right ascension
Unknown
Apparent Declination
Unknown
Sunlit
N/A
Visualization observer readout
Local Sidereal Time
16:20:14
Azimuth
Unknown
Elevation
Unknown
Doppler factor
Unknown
Orbital elements
Apogee altitude
36,705.152 km
Perigee altitude
8,549.916 km
Semi-major axis
29,005.671 km
Eccentricity
0.48534
Inclination
13.4521°
RAAN
47.2365°
Arg. of periapsis
285.8521°
True anomaly
74.26082°
Mean anomaly
27.3634°
Eccentric anomaly
48.04254°
Mean motion
0.43936 °/min
Orbital period
819.38 mins
BSTAR
0
Loading maneuver chart data...
Computing Atmospheric mass density...

Documentation

Showing up to 5 results
|